KUIPER-00641

导读

KUIPER-00641(NORAD编号69787)是美国亚马逊柯伊伯(Project Kuiper)低轨宽带互联网星座的组网卫星,归属美国,属于该星座最新批次部署的载荷,2026年中发射入轨。该卫星为低地球轨道(LEO)通信卫星,经变轨后将运行于高度约630公里、倾角51.9度的工作轨道,配备相控阵天线与星间激光链路,单星下行速率最高达1Gbps、端到端延迟低至30ms级,主要面向全球网络覆盖不足区域提供高速宽带接入服务,当前在轨状态稳定,支撑亚马逊星座组网部署进度。

Basic Information
目录编号:
69787
目录名称:
KUIPER-00641
国际标识:
2026-151AA
轨道中心:
EARTH
卫星名称:
KUIPER-00641
卫星全名:
KUIPER-00641
卫星状态:
在轨 (已飞行65 天)
发射日期:
2026-07-02 UTC
国别 :
美国 (US)
星等 :
--
Orbit Information
数据来源 国际轨道数据
星历时间: 2026-09-05T12:00:02+0800
5小时前
查看轨道信息
半长轴: 6946.631km
偏心率: 0.0011717
轨道倾角: 51.890°
近地点辐角 3.284°
升交点赤经 292.770°
平近点角 218.210°
近地点: 560.354km
远地点: 576.634km
周期: 96.033分钟
每日圈数: 14.994826
Detailed Information
使用方式:
暂无
2D Orbit Map
3D Orbit Map
Orbit Altitude Analysis Chart
Orbit Inclination Analysis Chart
Orbit Comprehensive Analysis Chart
View Comprehensive Chart
Conjunction Data List
Event ID Objects TCA Miss Dist (km) Collision Risk Probability Collision Risk Index (CRI) Action
CDM_260905-053005-576406-978721
2026-09-05T
05:30:35+0000
1.002 km
极远距离
2.46748E-5 中风险 0.63
CDM_260905-225206-721606-978721
2026-09-05T
22:52:04+0000
1.055 km
极远距离
2.038499E-5 中风险 0.61
CDM_260902-115806-431406-978721
2026-09-02T
11:58:08+0000
1.064 km
极远距离
2.012587E-5 中风险 0.61
CDM_260830-013505-113806-978721
2026-08-30T
01:35:45+0000
1.631 km
极远距离
3.367834E-6 低风险 0.46
CDM_260905-165604-916706-978721
2026-09-05T
16:56:04+0000
2.407 km
极远距离
1.444996E-6 低风险 0.38